TimeEST,TemperatureF,Dew PointF,Humidity,Sea Level PressureIn,VisibilityMPH,Wind Direction,Wind SpeedMPH,Gust SpeedMPH,PrecipitationIn,Events,Conditions,WindDirDegrees,DateUTC
12:01 AM,30.2,26.6,86,29.94,3.0,West,6.9,-,0.00,Snow,Light Snow,270,2012-12-30 05:01:00
12:17 AM,30.2,26.6,86,29.94,2.5,West,6.9,16.1,0.00,Snow,Light Snow,270,2012-12-30 05:17:00
12:53 AM,28.9,26.1,89,29.99,2.0,West,6.9,16.1,0.00,Snow,Light Snow,280,2012-12-30 05:53:00
1:21 AM,28.4,26.6,93,29.97,3.0,West,9.2,17.3,0.00,,Overcast,280,2012-12-30 06:21:00
1:50 AM,28.4,24.8,86,29.99,3.0,West,8.1,-,0.00,Snow,Light Snow,280,2012-12-30 06:50:00
1:53 AM,28.9,26.1,89,30.03,3.0,West,9.2,-,0.00,Snow,Light Snow,280,2012-12-30 06:53:00
2:02 AM,28.4,24.8,86,30.00,2.5,WNW,9.2,-,0.00,Snow,Light Snow,290,2012-12-30 07:02:00
2:25 AM,28.4,26.6,93,30.02,1.5,WNW,8.1,-,0.00,Snow,Light Snow,290,2012-12-30 07:25:00
2:53 AM,28.9,26.1,89,30.08,2.5,West,8.1,-,0.00,Snow,Light Snow,270,2012-12-30 07:53:00
3:02 AM,28.4,24.8,86,30.05,2.5,West,6.9,-,0.00,Snow,Light Snow,280,2012-12-30 08:02:00
3:07 AM,28.4,24.8,86,30.05,3.0,West,8.1,-,0.00,,Overcast,280,2012-12-30 08:07:00
3:11 AM,28.4,24.8,86,30.05,2.5,West,5.8,-,0.00,Snow,Light Snow,270,2012-12-30 08:11:00
3:31 AM,28.4,24.8,86,30.06,2.0,West,8.1,-,0.00,Snow,Light Snow,280,2012-12-30 08:31:00
3:49 AM,28.4,24.8,86,30.07,4.0,WNW,8.1,18.4,0.00,Snow,Light Snow,300,2012-12-30 08:49:00
3:53 AM,28.0,24.1,85,30.11,4.0,WNW,9.2,18.4,0.00,,Overcast,290,2012-12-30 08:53:00
4:53 AM,28.9,21.9,75,30.15,10.0,WNW,8.1,18.4,N/A,,Overcast,290,2012-12-30 09:53:00
5:53 AM,28.9,21.9,75,30.18,10.0,WNW,6.9,-,N/A,,Overcast,290,2012-12-30 10:53:00
6:53 AM,28.0,21.0,75,30.25,10.0,West,10.4,23.0,N/A,,Overcast,280,2012-12-30 11:53:00
7:53 AM,28.0,19.9,72,30.28,10.0,WNW,9.2,-,N/A,,Overcast,290,2012-12-30 12:53:00
8:53 AM,28.0,21.9,78,30.31,6.0,Variable,3.5,-,N/A,,Haze,0,2012-12-30 13:53:00
9:02 AM,28.4,21.2,74,30.28,1.8,Variable,4.6,-,0.00,Snow,Light Snow,0,2012-12-30 14:02:00
9:26 AM,28.4,23.0,80,30.29,2.5,WSW,6.9,-,0.00,Snow,Light Snow,250,2012-12-30 14:26:00
9:53 AM,28.0,23.0,81,30.35,1.5,WSW,5.8,-,0.00,Snow,Light Snow,250,2012-12-30 14:53:00
10:08 AM,28.4,24.8,86,30.31,2.5,Variable,5.8,-,0.00,Snow,Light Snow,0,2012-12-30 15:08:00
10:17 AM,28.4,23.0,80,30.31,3.0,SW,12.7,-,0.00,Snow,Light Snow,230,2012-12-30 15:17:00
10:53 AM,28.0,23.0,81,30.37,3.0,SW,12.7,-,0.00,Snow,Light Snow,230,2012-12-30 15:53:00
11:16 AM,28.4,23.0,80,30.32,4.0,SW,9.2,-,0.00,Snow,Light Snow,230,2012-12-30 16:16:00
11:53 AM,28.0,21.9,78,30.36,7.0,SW,8.1,-,0.00,Snow,Light Snow,230,2012-12-30 16:53:00
12:32 PM,28.4,21.2,74,30.31,4.0,WSW,13.8,-,0.00,Snow,Light Snow,250,2012-12-30 17:32:00
12:53 PM,28.0,21.9,78,30.35,5.0,WSW,11.5,20.7,0.00,Snow,Light Snow,250,2012-12-30 17:53:00
1:53 PM,27.0,21.9,81,30.36,8.0,WSW,6.9,16.1,0.00,Snow,Light Snow,240,2012-12-30 18:53:00
2:25 PM,28.4,21.2,74,30.32,9.0,West,12.7,19.6,0.00,Snow,Light Snow,260,2012-12-30 19:25:00
2:53 PM,28.0,21.0,75,30.37,9.0,West,12.7,19.6,0.00,Snow,Light Snow,260,2012-12-30 19:53:00
3:53 PM,27.0,21.0,78,30.40,6.0,SW,5.8,-,0.00,,Haze,230,2012-12-30 20:53:00
4:17 PM,26.6,19.4,74,30.36,10.0,Variable,6.9,-,N/A,,Overcast,0,2012-12-30 21:17:00
4:39 PM,26.6,21.2,80,30.36,4.0,SW,5.8,-,N/A,,Haze,230,2012-12-30 21:39:00
4:53 PM,27.0,21.0,78,30.40,5.0,SW,6.9,-,N/A,,Haze,230,2012-12-30 21:53:00
5:53 PM,27.0,19.9,75,30.39,10.0,SW,5.8,-,N/A,,Overcast,220,2012-12-30 22:53:00
6:53 PM,27.0,19.9,75,30.40,10.0,SW,4.6,-,N/A,,Overcast,230,2012-12-30 23:53:00
7:53 PM,27.0,19.9,75,30.40,10.0,SW,8.1,-,N/A,,Overcast,220,2012-12-31 00:53:00
8:53 PM,27.0,19.9,75,30.42,10.0,SW,6.9,-,N/A,,Overcast,220,2012-12-31 01:53:00
9:53 PM,26.1,19.0,75,30.42,10.0,SW,6.9,17.3,N/A,,Overcast,230,2012-12-31 02:53:00
10:53 PM,26.1,19.0,75,30.40,10.0,Variable,4.6,-,N/A,,Overcast,0,2012-12-31 03:53:00
11:19 PM,24.8,19.4,80,30.34,10.0,Variable,3.5,-,N/A,,Scattered Clouds,0,2012-12-31 04:19:00
11:53 PM,24.1,19.0,81,30.38,10.0,SSW,5.8,-,N/A,,Clear,210,2012-12-31 04:53:00